THOR ABLESTAR DEB, 480

Orbit data source: Space-Track

THOR ABLESTAR DEB, 480 is space debris in LEO originally from a launch on Thu, 29 Jun 1961 UTC launched from the Air Force Eastern Test Range (AFETR). Debris objects in space refer to the collection of defunct objects orbiting the Earth. Examples of debris include non-operational satellites, rocket bodies, and fragments generated from explosions, collisions, or faulty payload assembly.

Loading next visibility...
Identifier
480, 1961-015FS
Orbit
LEO
Country
Flag of USUS
Related business
Manufacturer
Unknown
Mission
Spacecraft
Bus & Motor
Unknown
Mass
Unknown
Launch date (UTC)
1961-06-29 (65 years ago)
Launch vehicle
Unknown
Launch site
Air Force Eastern Test Range (AFETR)
Object type
Payload
Rocket body
Debris
Shape & HBR
Unknown shape, 0.2 m
Radar Cross Section
Medium (>0.1 m² and <1 m²)

Expand to show TLE details & history
Last TLE update: 1 day ago

TLE from 1 day ago
0 THOR ABLESTAR DEB
1   480U 61015FS  26171.36224720  .00001125  00000-0  35802-3 0  9998
2   480  66.2373  52.6335 0071154 144.2689 216.3204 14.42305766355275
Epoch: 2026-06-20T08:41Z
TLE epoch observation values (Epoch: 2026-06-20T08:41:38.158Z)
Latitude
-0.00002°
Longitude
13.64654°
Altitude
793.974 km
Speed
7.436 km/s
True Right ascension
03h 30m 32s
True Declination
0° 00' 00"
Sunlit
Object was in daylight at epoch
Visualization orbit readout
Latitude
Unknown
Longitude
Unknown
Altitude
Unknown
Speed
Unknown
Apparent Right ascension
Unknown
Apparent Declination
Unknown
Sunlit
N/A
Visualization observer readout
Local Sidereal Time
01:09:41
Azimuth
Unknown
Elevation
Unknown
Doppler factor
Unknown
Orbital elements
Apogee altitude
800.025 km
Perigee altitude
698.596 km
Semi-major axis
7,127.448 km
Eccentricity
0.00712
Inclination
66.2373°
RAAN
52.6335°
Arg. of periapsis
144.2689°
True anomaly
215.8409°
Mean anomaly
216.3204°
Eccentric anomaly
216.08031°
Mean motion
3.60697 °/min
Orbital period
99.81 mins
BSTAR
0.00035802
Loading maneuver chart data...
Computing Atmospheric mass density...

Documentation

Showing up to 5 results
|